"Pseudo-MPEC" for P10UbE2

Created 2019 Nov 13 10:07:12 UT using Find_Orb

Click here for an explanation of pseudo-MPECs

 
 Astrometry: 
     P10UbE2  C2019 11 05'kmqrVI!./:U.)AstrometrymM)Q--redacted;I#/T,]s_e1AW$F51
     P10UbE2  C2019 11 05l)4click;^v$y,f\y:f*GM.$6LXCcR\OcW`AIC0d(`C[l/=FI]PJF51
     P10UbE2  C2019 11 05e^OUe-RN95WVlqR;bZherewHWX;gOajgk;,PjaoQ:CE)!UOL-kAoF51
     P10UbE2  C2019 11 05r7Pg$(oGsdS#.nr9.p^7forK:gw!2?ql7C*h0bHexplanationl1F51

Station data:
(F51) Pan-STARRS 1, Haleakala  (N20.707235 W156.255910)  US/Hawaii.
   Observers N. Primak, A. Schultz, S. Watters, J. Thiel, T. Goggia. Measurer
   PS1 Science Consortium. 1.8-m Ritchey-Chrétien + CCD.

Orbital elements:  P10UbE2
   Perihelion 2019 Nov 4.296892 +/- 39.3 TT =  7:07:31 (JD 2458791.796892)
Epoch 2019 Nov  5.0 TT = JDT 2458792.5   Earth MOID: 0.2659   Ma: 0.0070
M   0.17537964 +/- 17               (J2000 ecliptic)          AutoNEOCP
n   0.24943468 +/- 0.247            Peri.   84.29444 +/- 110
a   2.49937537 +/- 1.66             Node   314.88630 +/- 56
e   0.4994859 +/- 0.243             Incl.    3.28318 +/- 3.1
P   3.95                   H 23.9   G  0.15   U 11.8  SR
q 1.25097239 +/- 0.263    Q 3.74777836 +/- 67.8
From 4 observations 2019 Nov. 5 (50.5 min); mean residual 0".09
Residuals in arcseconds: 
191105 F51  .04+  .04-    191105 F51  .16+  .09+    
191105 F51  .14-  .01+    191105 F51  .06-  .06-    

Ephemerides (geocentric):
Date (UTC) HH   RA              Dec         delta   r     elong  mag " sig PA
---- -- -- --  -------------   -----------  ------ ------ -----  --- ---- ---
2019 11 13 10  01 46 42.782   +26 54 12.18  .28080 1.2549 158.3 22.5  36d  18
2019 11 13 11  01 46 47.137   +26 54 20.72  .28087 1.2549 158.3 22.5  36d  18
2019 11 13 12  01 46 51.496   +26 54 29.22  .28095 1.2550 158.3 22.5  36d  18
2019 11 13 13  01 46 55.857   +26 54 37.68  .28102 1.2550 158.3 22.5  36d  18
2019 11 13 14  01 47 00.222   +26 54 46.10  .28109 1.2550 158.3 22.5  36d  18
2019 11 13 15  01 47 04.589   +26 54 54.49  .28116 1.2551 158.3 22.5  37d  18
2019 11 13 16  01 47 08.959   +26 55 02.83  .28123 1.2551 158.2 22.5  37d  18
2019 11 13 17  01 47 13.332   +26 55 11.15  .28130 1.2551 158.2 22.5  37d  18
2019 11 13 18  01 47 17.709   +26 55 19.42  .28138 1.2552 158.2 22.5  37d  18
2019 11 13 19  01 47 22.088   +26 55 27.66  .28145 1.2552 158.2 22.5  37d  18
2019 11 13 20  01 47 26.470   +26 55 35.86  .28152 1.2553 158.2 22.5  37d  18
2019 11 13 21  01 47 30.855   +26 55 44.02  .28159 1.2553 158.2 22.5  37d  18
2019 11 13 22  01 47 35.243   +26 55 52.14  .28167 1.2553 158.2 22.5  37d  18
2019 11 13 23  01 47 39.634   +26 56 00.23  .28174 1.2554 158.1 22.5  37d  18
2019 11 14 00  01 47 44.028   +26 56 08.28  .28181 1.2554 158.1 22.5  37d  18
2019 11 14 01  01 47 48.425   +26 56 16.30  .28189 1.2554 158.1 22.5  37d  18
2019 11 14 02  01 47 52.825   +26 56 24.27  .28196 1.2555 158.1 22.5  37d  18
2019 11 14 03  01 47 57.227   +26 56 32.21  .28204 1.2555 158.1 22.5  37d  18
2019 11 14 04  01 48 01.633   +26 56 40.11  .28211 1.2556 158.1 22.5  38d  18
2019 11 14 05  01 48 06.041   +26 56 47.98  .28218 1.2556 158.0 22.5  38d  18
2019 11 14 06  01 48 10.453   +26 56 55.81  .28226 1.2556 158.0 22.5  38d  18
2019 11 14 07  01 48 14.867   +26 57 03.60  .28233 1.2557 158.0 22.5  38d  18
2019 11 14 08  01 48 19.284   +26 57 11.36  .28241 1.2557 158.0 22.5  38d  18
2019 11 14 09  01 48 23.705   +26 57 19.08  .28248 1.2558 158.0 22.5  38d  18
2019 11 14 10  01 48 28.128   +26 57 26.76  .28256 1.2558 158.0 22.5  38d  18
2019 11 14 11  01 48 32.554   +26 57 34.40  .28264 1.2558 157.9 22.5  38d  18
2019 11 14 12  01 48 36.982   +26 57 42.01  .28271 1.2559 157.9 22.5  38d  18
2019 11 14 13  01 48 41.414   +26 57 49.58  .28279 1.2559 157.9 22.5  38d  18
2019 11 14 14  01 48 45.849   +26 57 57.12  .28286 1.2560 157.9 22.5  38d  18
2019 11 14 15  01 48 50.286   +26 58 04.62  .28294 1.2560 157.9 22.5  38d  18
2019 11 14 16  01 48 54.727   +26 58 12.08  .28302 1.2560 157.9 22.5  38d  18
2019 11 14 17  01 48 59.170   +26 58 19.50  .28309 1.2561 157.8 22.5  38d  18
2019 11 14 18  01 49 03.616   +26 58 26.89  .28317 1.2561 157.8 22.5  38d  18
2019 11 14 19  01 49 08.065   +26 58 34.25  .28325 1.2562 157.8 22.5  38d  18
2019 11 14 20  01 49 12.517   +26 58 41.56  .28332 1.2562 157.8 22.5  38d  18
2019 11 14 21  01 49 16.971   +26 58 48.84  .28340 1.2562 157.8 22.5  38d  18
2019 11 14 22  01 49 21.429   +26 58 56.09  .28348 1.2563 157.8 22.5  39d  18
2019 11 14 23  01 49 25.889   +26 59 03.29  .28356 1.2563 157.8 22.5  39d  18
2019 11 15 00  01 49 30.352   +26 59 10.46  .28364 1.2564 157.7 22.6  39d  18
2019 11 15 01  01 49 34.818   +26 59 17.60  .28371 1.2564 157.7 22.6  39d  18
2019 11 15 02  01 49 39.287   +26 59 24.70  .28379 1.2564 157.7 22.6  39d  18
2019 11 15 03  01 49 43.759   +26 59 31.76  .28387 1.2565 157.7 22.6  39d  18
2019 11 15 04  01 49 48.233   +26 59 38.79  .28395 1.2565 157.7 22.6  39d  18
2019 11 15 05  01 49 52.710   +26 59 45.78  .28403 1.2566 157.7 22.6  39d  18
2019 11 15 06  01 49 57.190   +26 59 52.73  .28411 1.2566 157.6 22.6  39d  18
2019 11 15 07  01 50 01.673   +26 59 59.65  .28419 1.2567 157.6 22.6  39d  18
2019 11 15 08  01 50 06.159   +27 00 06.53  .28427 1.2567 157.6 22.6  39d  18
2019 11 15 09  01 50 10.648   +27 00 13.38  .28435 1.2567 157.6 22.6  39d  18